contact:dominique.lefevre@mio.osupytheas.fr, maurice.libes@osupytheas.fr, didier.mallarino@osupytheas.fr
Project:EMSO http://www.emso-fr.org/EMSO-France
Depth: 2436.0 m
Title:EMSO Ligure Ouest : Data MII capteur MICROCAT
DateTime_Computer,Latitude,Longitude,Temperature,Conductivity,Pressure,DateTime_Instrument
DateTime_Computer,Latitude,Longitude,degC,S m-1,dbar,DateTime_Instrument
2020-05-07T00:02:34Z,42.805,6.029,13.2973,4.59988,2469.937,2020-5-07T02:03:15Z
2020-05-07T00:05:37Z,42.805,6.029,13.2974,4.59988,2469.96,2020-5-07T02:06:19Z
2020-05-07T00:08:41Z,42.805,6.029,13.2971,4.59986,2469.947,2020-5-07T02:09:22Z
2020-05-07T00:11:44Z,42.805,6.029,13.2975,4.60001,2469.96,2020-5-07T02:12:25Z
2020-05-07T00:14:47Z,42.805,6.029,13.2976,4.59992,2469.947,2020-5-07T02:15:28Z
2020-05-07T00:17:50Z,42.805,6.029,13.2976,4.59986,2469.947,2020-5-07T02:18:32Z
2020-05-07T00:20:54Z,42.805,6.029,13.2976,4.59991,2469.947,2020-5-07T02:21:35Z
2020-05-07T00:23:57Z,42.805,6.029,13.2978,4.60007,2469.937,2020-5-07T02:24:38Z
2020-05-07T00:27:00Z,42.805,6.029,13.2979,4.60006,2469.923,2020-5-07T02:27:41Z
2020-05-07T00:30:03Z,42.805,6.029,13.2979,4.59991,2469.9,2020-5-07T02:30:45Z
2020-05-07T00:33:07Z,42.805,6.029,13.2976,4.59993,2469.9,2020-5-07T02:33:48Z
2020-05-07T00:36:10Z,42.805,6.029,13.2970,4.59995,2469.914,2020-5-07T02:36:51Z
2020-05-07T00:39:13Z,42.805,6.029,13.2980,4.59991,2469.9,2020-5-07T02:39:54Z
2020-05-07T00:42:16Z,42.805,6.029,13.2975,4.59997,2469.923,2020-5-07T02:42:58Z
2020-05-07T00:45:19Z,42.805,6.029,13.2981,4.59996,2469.923,2020-5-07T02:46:01Z
2020-05-07T00:48:23Z,42.805,6.029,13.2981,4.59994,2469.876,2020-5-07T02:49:04Z
2020-05-07T00:51:26Z,42.805,6.029,13.2974,4.59991,2469.923,2020-5-07T02:52:07Z
2020-05-07T00:54:29Z,42.805,6.029,13.2971,4.59983,2469.947,2020-5-07T02:55:10Z
2020-05-07T00:57:32Z,42.805,6.029,13.2976,4.59983,2469.9,2020-5-07T02:58:13Z
2020-05-07T01:00:35Z,42.805,6.029,13.2976,4.59986,2469.923,2020-5-07T03:01:17Z
2020-05-07T01:03:39Z,42.805,6.029,13.2983,4.59989,2469.923,2020-5-07T03:04:20Z
2020-05-07T01:06:42Z,42.805,6.029,13.2973,4.59983,2469.923,2020-5-07T03:07:24Z
2020-05-07T01:09:46Z,42.805,6.029,13.2974,4.59994,2469.923,2020-5-07T03:10:27Z
2020-05-07T01:12:49Z,42.805,6.029,13.2977,4.59988,2469.923,2020-5-07T03:13:30Z
2020-05-07T01:15:52Z,42.805,6.029,13.2979,4.59991,2469.914,2020-5-07T03:16:33Z
2020-05-07T01:18:55Z,42.805,6.029,13.2973,4.59997,2469.923,2020-5-07T03:19:37Z
2020-05-07T01:21:58Z,42.805,6.029,13.2984,4.60006,2469.937,2020-5-07T03:22:40Z
2020-05-07T01:25:02Z,42.805,6.029,13.2982,4.59999,2469.937,2020-5-07T03:25:43Z
2020-05-07T01:28:05Z,42.805,6.029,13.2970,4.59996,2469.937,2020-5-07T03:28:46Z
2020-05-07T01:31:08Z,42.805,6.029,13.2974,4.59991,2469.9,2020-5-07T03:31:49Z
2020-05-07T01:34:11Z,42.805,6.029,13.2976,4.59997,2469.923,2020-5-07T03:34:53Z
2020-05-07T01:37:15Z,42.805,6.029,13.2977,4.59989,2469.9,2020-5-07T03:37:56Z
2020-05-07T01:40:18Z,42.805,6.029,13.2979,4.59988,2469.923,2020-5-07T03:40:59Z
2020-05-07T01:43:21Z,42.805,6.029,13.2974,4.59993,2469.923,2020-5-07T03:44:02Z
2020-05-07T01:46:24Z,42.805,6.029,13.2971,4.59990,2469.914,2020-5-07T03:47:06Z
2020-05-07T01:49:27Z,42.805,6.029,13.2979,4.60005,2469.937,2020-5-07T03:50:09Z
2020-05-07T01:52:31Z,42.805,6.029,13.2974,4.59994,2469.9,2020-5-07T03:53:12Z
2020-05-07T01:55:34Z,42.805,6.029,13.2980,4.59996,2469.9,2020-5-07T03:56:15Z
2020-05-07T01:58:37Z,42.805,6.029,13.2979,4.60003,2469.9,2020-5-07T03:59:19Z
2020-05-07T02:01:41Z,42.805,6.029,13.2975,4.59988,2469.914,2020-5-07T04:02:22Z
2020-05-07T02:04:44Z,42.805,6.029,13.2983,4.59998,2469.9,2020-5-07T04:05:25Z
2020-05-07T02:07:47Z,42.805,6.029,13.2976,4.59989,2469.923,2020-5-07T04:08:28Z
2020-05-07T02:10:50Z,42.805,6.029,13.2971,4.59984,2469.9,2020-5-07T04:11:32Z
2020-05-07T02:13:54Z,42.805,6.029,13.2974,4.59988,2469.947,2020-5-07T04:14:35Z
2020-05-07T02:16:57Z,42.805,6.029,13.2971,4.59988,2469.9,2020-5-07T04:17:38Z
2020-05-07T02:20:00Z,42.805,6.029,13.2974,4.59993,2469.937,2020-5-07T04:20:42Z
2020-05-07T02:23:04Z,42.805,6.029,13.2978,4.59985,2469.96,2020-5-07T04:23:45Z
2020-05-07T02:26:07Z,42.805,6.029,13.2972,4.59985,2469.937,2020-5-07T04:26:48Z
2020-05-07T02:29:10Z,42.805,6.029,13.2971,4.59986,2469.923,2020-5-07T04:29:51Z
2020-05-07T02:32:13Z,42.805,6.029,13.2971,4.60003,2469.923,2020-5-07T04:32:54Z
2020-05-07T02:35:16Z,42.805,6.029,13.2974,4.59981,2469.947,2020-5-07T04:35:58Z
2020-05-07T02:38:20Z,42.805,6.029,13.2977,4.59987,2469.923,2020-5-07T04:39:01Z
2020-05-07T02:41:23Z,42.805,6.029,13.2975,4.59990,2469.984,2020-5-07T04:42:04Z
2020-05-07T02:44:26Z,42.805,6.029,13.2972,4.59986,2469.937,2020-5-07T04:45:07Z
2020-05-07T02:47:29Z,42.805,6.029,13.2976,4.59986,2469.937,2020-5-07T04:48:11Z
2020-05-07T02:50:33Z,42.805,6.029,13.2972,4.59983,2469.947,2020-5-07T04:51:14Z
2020-05-07T02:53:36Z,42.805,6.029,13.2973,4.59983,2469.923,2020-5-07T04:54:17Z
2020-05-07T02:56:39Z,42.805,6.029,13.2976,4.59986,2469.937,2020-5-07T04:57:20Z
2020-05-07T02:59:42Z,42.805,6.029,13.2976,4.59983,2469.97,2020-5-07T05:00:24Z
2020-05-07T03:02:46Z,42.805,6.029,13.2974,4.59986,2469.984,2020-5-07T05:03:27Z
2020-05-07T03:05:49Z,42.805,6.029,13.2976,4.59994,2469.96,2020-5-07T05:06:30Z
2020-05-07T03:08:52Z,42.805,6.029,13.2974,4.59986,2469.947,2020-5-07T05:09:33Z
2020-05-07T03:11:55Z,42.805,6.029,13.2970,4.59979,2469.984,2020-5-07T05:12:37Z
2020-05-07T03:14:59Z,42.805,6.029,13.2973,4.59986,2469.97,2020-5-07T05:15:40Z
2020-05-07T03:18:02Z,42.805,6.029,13.2972,4.59994,2469.947,2020-5-07T05:18:43Z
2020-05-07T03:21:05Z,42.805,6.029,13.2971,4.59988,2469.97,2020-5-07T05:21:46Z
2020-05-07T03:24:08Z,42.805,6.029,13.2975,4.59993,2469.97,2020-5-07T05:24:49Z
2020-05-07T03:27:11Z,42.805,6.029,13.2970,4.59978,2469.97,2020-5-07T05:27:53Z
2020-05-07T03:30:15Z,42.805,6.029,13.2975,4.59981,2469.984,2020-5-07T05:30:56Z
2020-05-07T03:33:18Z,42.805,6.029,13.2971,4.59983,2469.993,2020-5-07T05:33:59Z
2020-05-07T03:36:21Z,42.805,6.029,13.2978,4.59983,2469.993,2020-5-07T05:37:02Z
2020-05-07T03:39:24Z,42.805,6.029,13.2975,4.59982,2469.993,2020-5-07T05:40:06Z
2020-05-07T03:42:28Z,42.805,6.029,13.2974,4.59984,2469.984,2020-5-07T05:43:09Z
2020-05-07T03:45:31Z,42.805,6.029,13.2982,4.59996,2469.97,2020-5-07T05:46:12Z
2020-05-07T03:48:34Z,42.805,6.029,13.2976,4.59991,2469.993,2020-5-07T05:49:15Z
2020-05-07T03:51:37Z,42.805,6.029,13.2974,4.59988,2470.007,2020-5-07T05:52:19Z
2020-05-07T03:54:41Z,42.805,6.029,13.2971,4.59976,2470.017,2020-5-07T05:55:22Z
2020-05-07T03:57:44Z,42.805,6.029,13.2970,4.59983,2469.993,2020-5-07T05:58:25Z
2020-05-07T04:00:47Z,42.805,6.029,13.2971,4.59979,2470.017,2020-5-07T06:01:28Z
2020-05-07T04:03:50Z,42.805,6.029,13.2969,4.59979,2470.017,2020-5-07T06:04:32Z
2020-05-07T04:06:54Z,42.805,6.029,13.2976,4.59986,2470.04,2020-5-07T06:07:35Z
2020-05-07T04:09:57Z,42.805,6.029,13.2975,4.59988,2470.053,2020-5-07T06:10:38Z
2020-05-07T04:13:00Z,42.805,6.029,13.2973,4.59984,2470.017,2020-5-07T06:13:41Z
2020-05-07T04:16:03Z,42.805,6.029,13.2971,4.59984,2470.063,2020-5-07T06:16:45Z
2020-05-07T04:19:07Z,42.805,6.029,13.2974,4.59986,2470.04,2020-5-07T06:19:48Z
2020-05-07T04:22:10Z,42.805,6.029,13.2976,4.59984,2470.063,2020-5-07T06:22:51Z
2020-05-07T04:25:13Z,42.805,6.029,13.2972,4.59980,2470.077,2020-5-07T06:25:54Z
2020-05-07T04:28:16Z,42.805,6.029,13.2971,4.59983,2470.04,2020-5-07T06:28:58Z
2020-05-07T04:31:19Z,42.805,6.029,13.2972,4.59984,2470.063,2020-5-07T06:32:01Z
2020-05-07T04:34:23Z,42.805,6.029,13.2970,4.59983,2470.1,2020-5-07T06:35:04Z
2020-05-07T04:37:26Z,42.805,6.029,13.2972,4.59981,2470.04,2020-5-07T06:38:07Z
2020-05-07T04:40:29Z,42.805,6.029,13.2974,4.59977,2470.073,2020-5-07T06:41:10Z
2020-05-07T04:43:32Z,42.805,6.029,13.2978,4.59994,2470.063,2020-5-07T06:44:14Z
2020-05-07T04:46:36Z,42.805,6.029,13.2976,4.59990,2470.063,2020-5-07T06:47:17Z
2020-05-07T04:49:39Z,42.805,6.029,13.2979,4.59989,2470.077,2020-5-07T06:50:20Z
2020-05-07T04:52:42Z,42.805,6.029,13.2972,4.59981,2470.087,2020-5-07T06:53:23Z
2020-05-07T04:55:45Z,42.805,6.029,13.2975,4.59982,2470.087,2020-5-07T06:56:27Z
2020-05-07T04:58:49Z,42.805,6.029,13.2971,4.59984,2470.087,2020-5-07T06:59:30Z
2020-05-07T05:01:52Z,42.805,6.029,13.2973,4.59984,2470.087,2020-5-07T07:02:33Z
2020-05-07T05:04:55Z,42.805,6.029,13.2974,4.59979,2470.11,2020-5-07T07:05:36Z
2020-05-07T05:07:58Z,42.805,6.029,13.2976,4.59988,2470.147,2020-5-07T07:08:40Z
2020-05-07T05:11:02Z,42.805,6.029,13.2973,4.59980,2470.11,2020-5-07T07:11:43Z
2020-05-07T05:14:05Z,42.805,6.029,13.2975,4.59982,2470.087,2020-5-07T07:14:46Z
2020-05-07T05:17:08Z,42.805,6.029,13.2972,4.59985,2470.11,2020-5-07T07:17:49Z
2020-05-07T05:20:11Z,42.805,6.029,13.2976,4.59982,2470.11,2020-5-07T07:20:52Z
2020-05-07T05:23:14Z,42.805,6.029,13.2975,4.59983,2470.133,2020-5-07T07:23:56Z
2020-05-07T05:26:18Z,42.805,6.029,13.2976,4.59981,2470.147,2020-5-07T07:26:59Z
2020-05-07T05:29:21Z,42.805,6.029,13.2973,4.59980,2470.124,2020-5-07T07:30:02Z
2020-05-07T05:32:24Z,42.805,6.029,13.2970,4.59987,2470.147,2020-5-07T07:33:05Z
2020-05-07T05:35:27Z,42.805,6.029,13.2970,4.59989,2470.11,2020-5-07T07:36:09Z
2020-05-07T05:38:31Z,42.805,6.029,13.2974,4.59988,2470.11,2020-5-07T07:39:12Z
2020-05-07T05:41:34Z,42.805,6.029,13.2975,4.59983,2470.124,2020-5-07T07:42:15Z
2020-05-07T05:44:37Z,42.805,6.029,13.2969,4.59981,2470.124,2020-5-07T07:45:18Z
2020-05-07T05:47:40Z,42.805,6.029,13.2973,4.59996,2470.11,2020-5-07T07:48:22Z
2020-05-07T05:50:43Z,42.805,6.029,13.2976,4.59989,2470.147,2020-5-07T07:51:25Z
